Regional Weather Roundup
Issued by NWS Upton, NY

Current Version | Previous Version | Graphics & Text | Print | Product List | Glossary Off
Versions: 1 2 3 4 5 6 7 8 9 10 11 12 13 14 15 16 17 18 19 20 21 22 23 24 25 26 27 28 29 30 31 32 33 34 35 36 37 38 39 40 41 42 43 44 45 46 47 48 49 50
000 ASUS41 KOKX 292305 RWROKX REGIONAL WEATHER ROUNDUP NATIONAL WEATHER SERVICE NEW YORK NY 700 PM EDT MON SEP 29 2014 NOTE: "FAIR" INDICATES FEW OR NO CLOUDS BELOW 12,000 FEET WITH NO SIGNIFICANT WEATHER AND/OR OBSTRUCTIONS TO VISIBILITY. NYZ071-072-176-178-NJZ106-104-300000- NEW YORK CITY METRO AREA CITY SKY/WX TMP DP RH WIND PRES REMARKS CENTRAL PARK CLOUDY 74 59 59 CALM 29.94S LAGUARDIA APRT CLOUDY 74 60 61 S7 29.91R KENNEDY INTL CLOUDY 70 64 81 CALM 29.92S NEWARK/LIBERTY CLOUDY 74 60 61 SW8 29.90F BRNX BOT. GARD N/A 72 61 68 SE3 29.91F TETERBORO LGT RAIN 73 60 63 S7 29.90S $$ NYZ177-179-078>081-300000- LONG ISLAND NEW YORK CITY SKY/WX TMP DP RH WIND PRES REMARKS FARMINGDALE CLOUDY 71 62 73 SE3 29.92F ISLIP CLOUDY 69 63 81 S6 29.90F SHIRLEY CLOUDY 68 64 87 S6 29.94R WESTHAMPTON CLOUDY 67 64 90 CALM 29.94S MONTAUK POINT N/A 68 65 90 SE3 29.94F $$ NYZ052-065-067-300000- HUDSON VALLEY CITY SKY/WX TMP DP RH WIND PRES REMARKS WHITE PLAINS CLOUDY 68 57 68 CALM 29.91F NEWBURGH MOCLDY 72 61 68 VRB5 29.93S MONTGOMERY CLOUDY 68 61 78 CALM 29.91S POUGHKEEPSIE CLOUDY 70 62 76 CALM 29.90S ALBANY CLOUDY 67 60 78 CALM 29.93S $$ NJZ001-105-106-008-010-013-015-019>022-104-300000- NEW JERSEY CITY SKY/WX TMP DP RH WIND PRES REMARKS NEWARK/LIBERTY CLOUDY 74 60 61 SW8 29.90F TETERBORO LGT RAIN 73 60 63 S7 29.90S CALDWELL LGT RAIN 70 61 73 CALM 29.91S MORRISTOWN MOCLDY 70 64 83 CALM 29.92R SOMERVILLE CLOUDY 69 61 75 CALM 29.90S LINDEN FAIR 77 64 63 CALM 29.92F SUSSEX CLOUDY 69 60 73 CALM 29.92R ANDOVER N/A 66 61 84 CALM 29.93R TRENTON CLOUDY 68 60 75 SW5 29.93R MILLVILLE CLOUDY 68 65 90 CALM 29.94S ATLANTIC CITY CLOUDY 70 63 78 S3 29.93S WRIGHTSTOWN CLOUDY 67 64 90 S5 29.91R TOMS RIVER CLOUDY 68 64 88 CALM 29.93R BELMAR CLOUDY 70 61 73 SW6 29.93R $$ PAZ047>061-062-071-300000- EASTERN PENNSYLVANIA CITY SKY/WX TMP DP RH WIND PRES REMARKS PHILADELPHIA LGT RAIN 70 65 84 W10 29.94S ALLENTOWN CLOUDY 71 58 63 CALM 29.91F SCRANTON CLOUDY 68 57 68 CALM 29.92F $$ CTZ002-004>006-009-010-012-RIZ004-006-007-MAZ004-011-015-300000- SOUTHERN NEW ENGLAND IN CT CITY SKY/WX TMP DP RH WIND PRES REMARKS BRADLEY INTL CLOUDY 71 62 73 SE6 29.92R HARTFORD CLOUDY 67 64 90 MISG 29.92R DANBURY CLOUDY 68 63 84 CALM 29.93F WTRBRY/OXFORD MOCLDY 68 59 73 CALM 29.94F BRIDGEPORT CLOUDY 70 65 84 S8 29.92S MERIDEN CLOUDY 68 63 84 CALM 29.92S NEW HAVEN CLOUDY 71 61 70 E3 29.92S CHESTER FAIR 68 64 88 CALM 29.94F GROTON CLOUDY 66 65 96 E6 29.93S WILLIMANTIC CLOUDY 69 65 86 CALM 29.94S IN RI CITY SKY/WX TMP DP RH WIND PRES REMARKS PROVIDENCE CLOUDY 67 64 90 NE3 29.95R BLOCK ISLAND CLOUDY 66 63 88 S3 29.95S WESTERLY CLOUDY 67 64 90 CALM 29.95R IN MA CITY SKY/WX TMP DP RH WIND PRES REMARKS BOSTON CLOUDY 61 58 90 NE13 30.00R FOG WORCESTER CLOUDY 63 57 81 NE12 29.99R WESTFIELD CLOUDY 69 64 84 N3 29.93S PROVINCETOWN CLOUDY 63 59 88 NE9 29.97S NANTUCKET CLOUDY 64 62 93 S3 29.96S $$ ANZ330-335-338-340-345-350-353-355-300000- COASTAL MARINE OBSERVATIONS STATION/POSITION TIME SKY/WX TEMP WIND PRES VSBY WAVE AIR SEA DIR/SP/G HT/PER (UTC) (F) (DEG/KT/KT) (MB) (MI) (FT/S) NY HARB ENTRANCE 2300 70 69 180/ 6/ 8 1013.3 2/ 8 4S FIRE IS 2300 69 N/A 2/ 8 20S FIRE ISLAND 2300 68 68 200/ 10/ 10 1013.5 2/ 7 23SW MTP 2300 N/A 2/ 8 HUDSON CANYON 2300 69 69 220/ 6/ 8 1013.8 2/ 9 EXECUTION ROCKS 2300 72 69 180/ 4/ 8 N/A WESTERN LI SOUND 2300 71 150/ 10/ 12 N/A 0 CENTRAL LI SOUND 2200 69 69 100/ 6/ 8 N/A 0 EASTERN LI SOUND 2200 68 67 110/ 4/ 6 N/A ROBBINS REEF 2300 71 170/ 10/ 11 1011.6 $$ >>>>>>>>>>>>>>>>>>>>>>>>>>>> KEY <<<<<<<<<<<<<<<<<<<<<<<<<<< > < > SKY/WX - SKY CONDITION/PRESENT WEATHER < > TMP - TEMPERATURE IN FAHRENHEIT < > DP - DEWPOINT IN FAHRENHEIT < > RH - RELATIVE HUMIDITY IN PERCENT < > WIND - DIRECTION AND SPEED IN MPH < > PRES - MEAN SEA LEVEL PRESSURE IN INCHES OF HG < > WCI - WIND CHILL INDEX < > VSB - VISIBILITY IN MILES < > HX - HEAT INDEX < > TC - TEMPERATURE IN CELSIUS < > VRB - VARIABLE WIND DIRECTION < > < >>>>>>>>>>>>>>>>>>>>>>>>>>>> KEY <<<<<<<<<<<<<<<<<<<<<<<<<<<

USA.gov is the U.S. government's official web portal to all federal, state and local government web resources and services.